Meath Environmental Platform

Observations

Time Sensor AQI SAQ Temp °C Hum % Pres Pa CO μg/m³ H₂S μg/m³ NO μg/m³ NO₂ μg/m³ O₃ μg/m³ SO₂ μg/m³ CO₂e PPM VOC PPM PM1 μg/m³ PM2.5 μg/m³ PM4 μg/m³ PM10 μg/m³ TPS µm
Tuesday 11 August 2026
19:06 Trim Market St 3 30.3 29 66,254 0 16.69 0.59 33.76 62.15 0 1.43 4.99 5.49
19:06 Trim Patrick St 3 34 26 69,541 0 38.7 0.41 26.93 83.35 26.13 4.57 10.38 11.41
19:04 Trim Market St 3 30.4 29 66,258 0 13.28 0.6 62.2 44.08 0 2.85 6.09 6.7
19:04 Trim Patrick St 3 34.4 25 69,553 0 26.91 0.46 26.66 82.51 25.27 3.71 10.43 11.47
19:03 Trim Patrick St 3 34.6 25 69,561 0 23.33 0.49 26.99 65.28 23.48 4.57 11.26 12.39
19:02 Trim Patrick St 3 34.8 25 69,571 0 23.69 0.49 17.47 78.43 25.9 3.71 10.46 11.51
19:01 Trim Patrick St 3 34.9 24 69,579 0 21.66 0.61 16.17 79.18 25.46 4.57 10.48 11.53
19:00 Trim Patrick St 3 35.1 24 69,591 0 21.88 0.6 18.83 95.75 26.46 3.71 11.29 12.42
18:59 Trim Market St 3 30.5 28 66,284 0 18.64 0.55 35.5 61.81 0 1.43 4.47 4.92
18:59 Trim Patrick St 3 35.3 24 69,602 0 14.57 0.56 17.8 63.16 23.75 3.71 11.32 12.45
18:58 Trim Market St 3 30.5 28 66,292 0 18.66 0.52 36.44 63.84 0 2.14 5.03 5.53
18:58 Trim Patrick St 3 35.4 24 69,618 0 20.96 0.54 17.08 63.32 25.5 2.86 10.47 11.52
18:57 Trim Patrick St 3 35.4 24 69,610 0 16.94 0.58 26.91 63.16 24.6 3.71 10.51 11.56
18:56 Trim Market St 3 30.6 28 66,274 0 17.72 0.54 36.7 60.8 0 1.43 4.49 4.94
18:56 Trim Patrick St 3 35.5 24 69,622 0 26.06 0.47 29.88 73.21 25.58 4.57 10.48 11.53
18:55 Trim Patrick St 3 35.4 25 69,608 0 26.85 0.38 23.19 77.53 26.34 4.57 11.28 12.4
18:54 Trim Patrick St 3 35.4 25 69,620 0 24.71 0.34 18.15 71.09 25.54 5.43 12.1 13.31
18:53 Trim Patrick St 3 35.3 24 69,608 0 24.94 0.24 18.55 75.8 25.84 3.71 10.49 11.54
18:52 Trim Patrick St 3 35.2 24 69,595 0 27.87 0.22 17.62 66.1 25.75 4.57 11.3 12.44
18:49 Trim Patrick St 3 34.9 25 69,585 0 37.18 0.29 27.58 91.67 26.99 3.71 10.45 11.5